Tracking 29091 objects as of 17-Jul-2024
HD Live streaming from Space Station
objects crossing your sky now

STARLINK-6181

Track STARLINK-6181 now!
10-day predictions
STARLINK-6181 is classified as:


NORAD ID: 56888
Int'l Code: 2023-083N
Perigee: 565.4 km
Apogee: 567.1 km
Inclination: 43.0 °
Period: 95.8 minutes
Semi major axis: 6937 km
RCS: Unknown
Launch date: June 12, 2023
Source: United States (US)
Launch site: AIR FORCE EASTERN TEST RANGE (AFETR)
Your satellite tracking list
Your tracking list is empty




NASA's NSSDC Master Catalog

Two Line Element Set (TLE):
1 56888U 23083N   24198.80733844  .00003473  00000-0  27201-3 0  9994
2 56888  43.0010 106.6702 0001228 272.5376  87.5326 15.02535210 61284
Source of the keplerian elements: AFSPC